CAPE
0 0 0 0 0 0 0 0 1 0 0 0 0 0 0 0 0 0 0 0 0 0 0 0 0 0 0 2 3 2 0 1 3 2 1 2 4 4
0 0 0 0 0 0 0 0 0 1 0 0 0 0 0 0 0 0 0 0 0 0 0 0 0 0 0 0 1 1 0 1 2 2 2 1 5 6
0 0 0 0 0 0 0 0 0 0 2 1 0 0 0 0 0 0 0 0 0 0 0 0 0 0 0 0 1 2 2 1 1 0 2 1 1 1
0 0 0 0 0 0 0 0 0 0 0 0 0 0 0 0 0 0 0 0 0 0 0 0 0 0 0 0 2 1 1 2 0 0 0 1 6 4
0 0 0 0 0 0 0 0 0 0 0 0 1 0 0 0 0 0 0 0 0 0 0 0 0 0 0 0 0 0 0 0 0 0 0 0 0 0
0 0 0 0 0 0 0 0 0 0 0 0 0 0 0 0 0 0 0 0 0 0 0 0 0 0 0 0 0 0 0 0 0 0 0 0 0 0
0 0 0 0 0 0 0 0 1 0 0 0 0 0 0 0 0 0 1 0 0 0 0 0 0 0 0 0 0 0 0 0 0 0 0 0 0 0
0 0 0 0 0 0 0 3 1 0 0 0 0 1 0 0 0 1 1 1 0 0 0 0 0 0 0 0 0 0 0 0 0 0 0 0 0 0
0 0 0 0 0 0 0 1 0 0 0 0 0 0 0 0 0 1 1 2 2 0 0 0 0 0 0 0 0 0 0 0 0 0 0 0 0 0
0 0 0 0 0 0 0 0 0 0 0 0 0 0 0 0 1 0 1 0 0 0 0 1 0 0 0 0 0 0 0 0 0 0 0 0 0 0
0 0 0 0 0 0 0 0 0 0 0 0 0 0 0 0 0 0 0 1 0 0 0 0 0 0 0 0 0 0 0 0 0 0 0 0 0 0
0 0 0 0 0 0 0 0 0 0 0 0 0 0 0 0 0 0 0 0 0 0 0 0 0 2 0 0 0 0 0 0 0 0 0 0 0 0
0 0 0 0 0 0 0 0 0 0 0 0 0 0 0 0 0 0 0 0 0 0 0 0 0 0 2 1 0 0 0 0 0 0 0 0 0 0
0 0 0 0 0 0 0 0 0 0 0 0 0 0 0 0 0 0 0 0 1 0 0 0 0 0 0 0 1 0 0 0 0 0 0 0 0 0
0 0 0 0 0 0 0 0 0 0 0 0 0 0 0 0 0 0 0 0 0 0 1 0 0 0 0 0 1 1 1 0 0 0 1 1 0 0
0 0 0 0 0 0 0 0 0 0 0 0 0 0 0 0 0 0 0 0 0 0 0 0 0 0 0 0 1 0 0 1 0 0 0 1 0 0
0 0 0 0 0 0 0 0 0 0 0 0 0 0 0 0 0 0 0 0 0 0 0 0 0 0 0 0 0 0 0 1 0 1 1 1 0 0
0 0 0 0 0 0 0 0 0 0 0 0 0 0 0 0 0 0 0 0 0 0 0 0 0 0 0 0 0 0 0 1 0 1 0 1 2 0
0 0 0 0 0 0 0 0 0 0 0 0 0 0 0 0 0 0 0 0 0 0 0 0 0 0 0 0 0 0 0 0 1 3 1 1 2 3
0 0 0 0 0 0 0 0 0 0 0 0 0 0 0 0 0 0 0 0 0 0 0 0 0 0 0 0 0 0 0 0 1 2 2 0 0 0
0 0 0 0 0 0 0 0 0 0 0 0 0 0 0 0 0 0 0 0 0 0 0 0 0 0 0 0 0 0 0 0 0 1 1 1 2 1
0 0 0 0 0 0 0 0 0 0 0 0 0 0 0 0 0 0 0 0 0 0 0 0 0 0 0 0 0 0 0 0 0 0 0 0 1 0
0 0 0 0 0 0 0 0 0 0 0 0 0 0 0 0 0 0 0 0 0 0 0 0 0 0 0 0 0 0 0 0 1 0 0 0 0 0
CIN
0 0 0 0 0 0 -0 0 0 0 0 0 0 0 0 0 0 0 0 0 0 0 0 0 0 0 -0 -0 0 -0 -0 -0 0 0 -0 0 0 0
0 0 0 0 0 0 0 0 0 -0 -0 -0 0 0 0 0 0 0 0 0 0 0 0 0 0 0 0 -0 -0 -0 -0 -0 -0 -0 0 -0 0 0
0 0 0 0 0 0 0 0 0 0 0 -0 0 0 0 0 0 0 0 0 0 0 0 0 0 0 0 0 -0 -0 0 -0 -0 -0 0 -0 -0 0
0 0 0 0 0 0 0 0 0 0 0 0 0 0 0 0 0 0 0 0 0 0 0 0 0 0 0 0 -0 -0 -0 -0 0 0 0 -0 0 0
0 0 0 0 0 0 0 -0 0 0 0 -0 -0 -0 0 0 0 0 0 0 0 0 0 0 0 0 0 0 0 0 -0 -0 0 0 0 0 0 0
0 0 0 0 0 0 0 0 0 0 -1 0 -0 0 0 0 0 0 0 0 0 0 0 0 0 0 0 0 0 0 0 -0 -0 0 0 0 0 0
0 0 0 0 0 0 -0 -2 -0 -0 0 0 0 -0 -0 0 0 -0 -0 -0 -0 0 0 0 0 0 0 0 0 0 0 0 -0 -0 0 0 0 0
0 0 0 0 0 0 0 -1 -1 0 0 0 0 0 -0 -0 -0 -0 -0 -0 0 0 0 0 0 0 0 0 0 0 0 0 0 0 0 0 0 0
0 0 0 0 0 0 0 -0 0 0 0 0 0 0 -0 -0 -0 -0 -0 -0 -0 0 0 0 -0 0 0 0 0 0 0 0 0 0 0 0 0 0
0 0 0 0 0 -0 0 0 0 0 0 -2 0 0 -0 -1 -0 -0 -0 -0 0 0 0 0 0 0 0 0 0 0 0 0 0 -0 -3 0 0 0
0 0 0 0 0 -0 0 0 0 0 0 0 0 0 0 -0 -0 -0 0 0 0 0 0 0 0 -0 0 0 0 0 -1 0 0 0 0 0 0 0
0 0 0 0 0 0 0 0 0 0 0 0 0 0 0 0 0 0 -1 0 0 -0 0 0 -0 -0 -0 0 0 0 0 0 0 0 0 0 0 0
0 0 0 0 0 0 0 0 0 -1 0 0 0 0 0 0 0 -0 0 -0 0 0 0 0 0 -0 -0 -0 0 0 0 0 -0 0 0 0 0 0
0 0 0 0 0 0 0 0 0 0 0 0 0 0 0 0 0 0 0 0 0 -0 0 -0 0 -0 -0 -0 0 0 0 0 -0 0 0 0 0 -0
0 0 0 0 0 0 0 0 0 0 0 0 0 0 0 0 0 0 0 0 0 0 0 0 -0 0 0 -0 0 0 0 0 -0 0 0 0 0 0
0 0 0 0 0 0 0 0 0 0 0 0 0 0 -0 0 0 0 0 0 0 0 0 0 0 0 0 -0 -0 0 -0 -0 -0 -0 0 0 -0 0
0 0 0 0 0 0 0 0 0 0 0 0 0 0 0 0 0 0 0 0 0 0 0 0 0 0 0 -0 -0 0 0 0 0 0 0 0 -0 0
0 0 0 0 0 0 0 0 0 0 0 0 0 0 0 0 0 0 0 0 0 0 0 0 0 0 0 0 0 0 0 0 0 0 -1 0 0 0
0 0 0 0 0 0 0 0 0 0 0 0 0 0 0 0 0 0 0 0 0 0 0 0 0 0 0 0 0 0 0 0 0 0 0 0 0 0
0 0 0 0 0 0 0 0 0 0 0 0 0 0 0 0 0 0 0 0 0 0 0 0 0 0 0 0 0 0 0 0 0 0 0 -0 0 0
0 0 0 0 0 0 0 0 0 0 0 0 0 0 0 0 0 0 0 0 0 0 0 0 0 0 0 0 0 0 0 0 0 0 0 0 0 0
0 0 0 0 0 0 0 0 0 0 0 0 0 0 0 0 0 0 0 0 0 0 0 0 0 0 0 0 0 0 0 0 0 0 0 0 -0 0
0 0 0 0 0 0 0 0 0 0 0 0 0 0 0 0 0 0 0 0 0 0 0 0 0 0 0 0 0 0 0 0 0 0 0 0 0 0
Wind_Speed
28 28 28 27 27 28 29 32 35 39 42 34 39 41 44 43 44 44 44 43 46 45 45 45 47 46 45 45 45 46 46 46 46 49 53 55 53 56
27 28 26 27 27 29 30 31 31 34 37 40 41 44 46 45 45 46 45 46 46 47 46 47 47 48 49 48 47 47 47 48 48 48 51 52 52 54
28 27 27 27 29 30 30 30 32 32 36 38 41 43 45 46 47 47 45 45 46 48 49 48 49 50 50 49 48 47 48 48 49 50 50 52 54 56
28 26 27 29 30 30 31 33 33 35 38 44 44 45 46 47 49 49 46 47 48 48 50 51 51 51 50 49 49 49 49 50 52 54 54 52 53 55
26 26 28 29 30 30 33 34 35 36 38 42 47 46 47 48 50 47 51 50 48 50 51 51 50 49 50 52 53 52 52 51 52 52 53 54 55 55
25 26 27 29 30 33 34 35 36 39 39 43 45 47 48 49 48 55 55 50 53 50 51 49 48 50 54 52 53 52 52 52 52 52 52 54 55 54
25 26 28 28 30 33 33 36 38 39 42 44 46 47 48 49 54 53 55 56 53 54 52 46 53 52 51 51 51 51 51 53 53 53 53 54 55 56
26 27 28 28 31 33 33 36 37 40 43 43 44 47 48 51 51 52 55 57 61 49 53 58 52 53 52 51 52 54 55 54 54 55 55 55 56 57
26 27 29 30 32 32 34 33 36 39 39 40 43 44 50 49 49 52 52 54 56 56 55 58 51 54 52 52 54 55 56 56 57 56 57 57 58 58
25 28 29 31 32 34 33 36 37 39 37 36 40 43 42 43 44 46 50 52 52 50 48 57 52 54 51 52 55 55 53 51 50 50 51 53 54 57
26 28 29 31 34 36 37 38 39 39 35 40 40 40 41 42 42 45 48 52 56 54 49 49 45 52 53 52 48 45 43 45 50 52 51 54 55 56
27 28 29 33 35 36 37 39 41 41 42 44 41 40 39 39 41 38 42 47 50 51 38 47 51 47 45 43 37 45 48 48 50 52 52 53 53 52
27 29 31 34 36 36 38 38 39 40 44 42 41 42 40 40 40 39 38 40 44 43 48 49 49 48 44 48 46 46 48 48 47 48 51 53 53 54
27 29 31 35 36 38 37 38 40 40 40 42 42 44 44 43 43 41 39 38 35 36 50 48 47 47 47 48 50 45 46 47 48 50 48 49 50 52
27 30 32 34 37 37 38 39 40 39 40 43 43 43 41 39 42 41 40 40 39 41 45 44 43 44 44 46 48 47 47 45 47 47 45 45 46 46
27 30 32 34 36 37 38 39 38 38 39 42 43 41 37 41 41 41 43 46 46 47 43 39 40 40 42 43 44 47 45 45 44 46 47 47 47 48
28 32 34 36 39 39 40 40 39 39 39 41 41 41 38 40 41 40 42 45 46 44 42 40 39 38 40 41 42 43 42 43 43 45 45 47 48 49
30 34 36 37 39 41 42 43 41 41 39 41 40 38 38 40 41 41 41 45 43 41 40 39 39 38 37 35 33 35 37 39 39 42 44 48 50 48
32 34 36 38 39 40 41 41 43 41 39 40 38 37 37 38 41 41 44 44 40 39 37 36 35 34 34 35 35 34 34 39 42 44 45 46 48 48
31 34 35 36 38 39 40 41 42 40 40 38 38 35 36 38 41 42 45 40 38 37 36 34 33 33 34 36 39 41 37 39 41 44 44 44 46 45
32 33 33 35 36 38 39 40 40 39 39 38 37 34 36 38 40 42 41 38 37 35 35 35 35 37 36 36 35 36 37 37 40 43 42 43 45 43
29 31 31 33 36 38 39 40 39 38 38 36 35 34 36 38 40 43 38 37 35 34 34 35 36 35 33 32 34 36 37 36 36 37 41 44 40 39
27 29 30 33 36 38 39 39 37 37 35 34 34 35 36 40 41 39 36 36 34 34 34 35 35 33 32 33 33 34 34 33 33 31 31 36 45 46
Wind_Direction
355 355 355 354 353 350 347 343 339 331 329 333 328 325 324 323 322 321 321 318 314 312 306 302 297 293 291 287 283 280 277 273 270 264 258 255 256 249
356 355 356 354 352 349 347 344 341 335 329 328 327 324 321 320 319 318 317 314 314 311 308 302 299 294 290 287 283 279 277 273 269 266 261 259 256 252
354 354 353 353 349 349 347 347 343 339 333 331 329 328 325 322 320 319 317 315 313 309 306 303 299 295 291 286 283 280 275 273 270 265 263 260 256 250
350 352 351 349 348 349 347 344 342 338 333 328 329 327 326 325 321 317 317 315 312 310 305 302 298 295 292 287 282 279 276 272 270 266 262 260 255 253
351 350 349 347 347 348 344 343 339 337 334 330 326 326 325 325 321 320 315 313 312 309 305 302 298 295 292 287 283 278 275 272 269 267 262 260 256 254
350 350 349 348 346 344 343 341 339 336 335 331 329 327 326 325 323 318 314 314 310 309 306 302 299 296 291 287 282 278 274 271 269 266 264 260 257 256
348 349 348 347 347 344 343 341 339 338 335 333 330 329 327 326 323 321 315 311 310 308 304 302 298 294 291 287 282 278 274 270 268 265 263 260 257 254
346 347 347 347 345 344 343 342 341 338 336 334 332 329 327 326 325 322 318 313 306 312 305 298 299 292 289 285 280 276 273 269 266 264 261 260 257 254
345 345 345 345 345 344 343 343 342 340 338 336 333 332 328 329 328 324 319 314 309 307 305 295 299 290 288 283 279 275 270 267 264 263 260 258 256 254
345 344 344 344 344 343 344 341 341 340 340 339 336 333 333 332 330 327 321 317 315 313 311 294 298 290 288 283 278 273 269 264 262 262 261 257 257 254
343 344 345 344 343 342 341 340 340 339 342 339 338 337 336 335 333 330 326 320 314 312 313 301 300 292 288 282 277 272 269 266 263 265 262 258 257 254
343 344 345 343 342 342 341 340 338 339 339 339 339 339 339 338 337 335 331 325 321 317 324 307 297 297 287 283 275 274 271 267 264 262 261 257 255 253
342 343 343 343 343 342 341 341 339 339 338 339 339 339 340 339 339 337 335 329 324 320 313 302 295 290 282 278 275 272 269 266 262 262 260 257 254 251
343 343 343 343 343 341 341 340 340 340 340 340 340 339 338 338 339 337 335 333 329 323 295 296 289 285 279 274 271 272 269 266 262 259 259 257 254 252
345 344 344 344 343 344 344 342 342 342 340 340 339 339 340 340 339 339 338 334 331 324 306 293 288 284 277 272 270 269 269 266 262 257 256 254 253 253
343 344 344 343 344 344 345 345 344 343 341 340 339 340 342 342 341 341 338 333 325 309 307 295 292 284 277 271 269 268 267 260 261 258 256 255 255 252
342 341 340 341 340 342 343 344 344 343 342 342 341 341 342 343 342 343 341 334 315 303 300 297 295 286 278 272 267 266 266 261 260 257 254 254 254 250
340 338 338 339 339 340 341 341 343 342 342 342 342 342 343 342 342 342 342 327 306 301 298 297 297 293 289 284 265 269 269 264 263 261 256 255 251 248
337 337 337 338 339 340 340 341 341 342 342 342 343 343 343 343 341 340 334 312 302 299 296 296 295 294 288 281 278 273 269 269 266 260 256 252 250 246
338 338 338 339 340 341 341 341 341 342 343 343 343 344 344 343 339 337 320 304 301 298 296 296 295 294 288 281 277 275 273 269 267 261 256 256 251 247
339 339 340 340 342 342 341 341 342 342 343 343 344 345 345 342 338 330 305 299 298 296 295 295 295 293 288 286 279 274 277 277 270 262 258 252 243 239
340 341 342 343 342 342 342 342 342 343 344 344 345 345 345 341 335 312 299 298 297 294 292 293 297 296 292 288 282 279 282 284 277 267 256 243 238 235
342 343 344 343 342 342 342 342 343 343 345 346 346 345 344 337 329 303 296 296 295 294 296 297 298 297 293 292 289 283 282 283 278 272 261 249 237 235